Content
SEND FEEDBACK

Daily
Averages
Monthly
Summary
Canada

LONDON, ONTARIO


Home > North America > Canada > Ontario
Elevation: 912 feet     Latitude: 43 02N     Longitude: 081 09W

WEATHER
 
SELECT A DAY
Number of Records: 196,614;   Date Range: 1/1/95 - 12/18/14
 
SHARE

PRINT THIS DATA

[ ← Previous Day ]
WEATHER ALMANAC - MAY 12, 2013
[ Next Day → ]
[ °C ]   °F
Weather ElementAverageHighLow
Temperature39.8 °F44.6 °F (1:00 pm)35.6 °F (2:00 am)
Dewpoint31.3 °F33.8 °F (1:00 am)26.6 °F (6:00 pm)
Humidity71.4 %93 % (2:00 am)56 % (2:00 pm)
Barometer29.88 in30.04 in (11:00 pm)29.81 in (5:00 am)
Wind Speed18.4 mph28.8 mph (3:25 pm)
Wind Gust41.4 mph (3:25 pm)
Weather ElementAverage
Visibility13.8 mi
Wind DirectionW (275.5 °)

Weather ElementTotal
Precipitation---
Heating Degree Days24.9 (Base 65)
Averaged from 47 records on May 12, 2013
WEATHER CONDITIONS BREAKOUT
WIND DIRECTION BREAKOUT
WEATHER BY HOUR - MAY 12, 2013
[ °C ]   °F
Local TimeTemperatureDewpointHumidityBarometerVisibilityWind DirectionWind SpeedGust SpeedPrecipitationEventsConditions
1:00 AM37.4 °F33.8 °F87 %29.84 in15.0 miWest (280°)10.4 mphScattered Clouds
2:00 AM36.0 °F33.0 °F85 %29.84 in15.0 miWest (270°)10.4 mph
2:00 AM35.6 °F33.8 °F93 %29.84 in15.0 miWest (270°)10.4 mphPartly Cloudy
3:00 AM35.6 °F33.8 °F93 %29.84 in15.0 miWSW (250°)10.4 mphClear
4:00 AM35.6 °F32.0 °F87 %29.82 in15.0 miWSW (250°)12.7 mphClear
5:00 AM35.6 °F32.0 °F87 %29.81 in15.0 miWSW (240°)11.5 mphClear
6:00 AM35.6 °F32.0 °F87 %29.81 in15.0 miWSW (250°)11.5 mph19.6 mphPartly Cloudy
7:00 AM37.4 °F32.0 °F81 %29.81 in15.0 miWSW (250°)16.1 mph26.5 mphMostly Cloudy
8:00 AM38.0 °F32.0 °F71 %29.82 in15.0 miWest (260°)17.3 mph
8:00 AM37.4 °F32.0 °F81 %29.82 in15.0 miWest (260°)15.0 mph27.6 mphMostly Cloudy
9:00 AM39.2 °F32.0 °F75 %29.82 in15.0 miWest (270°)19.6 mph28.8 mphOvercast
9:43 AM41.0 °F32.0 °F70 %29.83 in15.0 miWest (280°)17.3 mph31.1 mphRainLight Rain Showers
9:57 AM39.2 °F32.0 °F75 %29.83 in12.0 miWest (270°)23.0 mph32.2 mphRainLight Rain Showers
10:00 AM39.2 °F32.0 °F75 %29.83 in12.0 miWest (270°)20.7 mph32.2 mphRainLight Rain Showers
10:03 AM39.2 °F32.0 °F75 %29.83 in15.0 miWest (270°)24.2 mph32.2 mphRainLight Rain Showers
10:51 AM41.0 °F32.0 °F70 %29.84 in15.0 miWest (270°)19.6 mph33.4 mphMostly Cloudy
11:00 AM41.0 °F32.0 °F70 %29.84 in15.0 miWNW (290°)19.6 mph31.1 mphOvercast
11:13 AM41.0 °F32.0 °F70 %29.85 in15.0 miWest (280°)18.4 mph29.9 mphRainLight Rain Showers
11:27 AM41.0 °F32.0 °F70 %29.85 in15.0 miWest (280°)18.4 mph32.2 mphRainLight Rain Showers
11:37 AM42.8 °F32.0 °F66 %29.85 in15.0 miWest (260°)20.7 mph32.2 mphMostly Cloudy
11:49 AM41.0 °F30.2 °F65 %29.85 in15.0 miWest (270°)20.7 mph33.4 mphRainLight Rain Showers
12:00 PM41.0 °F32.0 °F70 %29.85 in15.0 miWest (270°)17.3 mph33.4 mphRainLight Rain Showers
12:26 PM41.0 °F32.0 °F70 %29.86 in15.0 miWest (270°)17.3 mph33.4 mphRainLight Rain Showers
12:42 PM42.8 °F30.2 °F61 %29.85 in10.0 miWNW (300°)18.4 mph27.6 mphRainLight Rain Showers
1:00 PM44.6 °F33.8 °F66 %29.86 in15.0 miWNW (300°)15.0 mph24.2 mphMostly Cloudy
1:04 PM44.6 °F30.2 °F57 %29.86 in10.0 miWest (280°)20.7 mph26.5 mphRainLight Rain Showers
1:55 PM41.0 °F33.8 °F76 %29.88 in10.0 miWest (280°)18.4 mph33.4 mphRainLight Rain Showers
2:00 PM41.0 °F31.0 °F56 %29.88 in10.0 miWest (270°)24.2 mph
2:00 PM41.0 °F30.2 °F65 %29.88 in10.0 miWest (280°)27.6 mph39.1 mphRainLight Rain Showers
2:31 PM44.6 °F32.0 °F61 %29.87 in15.0 miWest (280°)17.3 mph28.8 mphMostly Cloudy
2:36 PM42.8 °F32.0 °F66 %29.88 in8.0 miWest (260°)27.6 mph38.0 mphRainLight Rain Showers
3:00 PM41.0 °F33.8 °F76 %29.89 in10.0 miWest (270°)21.9 mph39.1 mphRainLight Rain Showers
3:20 PM42.8 °F33.8 °F70 %29.88 in15.0 miWest (280°)18.4 mph35.7 mphMostly Cloudy
3:25 PM41.0 °F32.0 °F70 %29.90 in3.0 miWest (280°)28.8 mph41.4 mphRainRain Showers
3:30 PM39.2 °F33.8 °F81 %29.89 in12.0 miWest (270°)21.9 mph41.4 mphRainLight Rain Showers
3:48 PM42.8 °F33.8 °F70 %29.89 in15.0 miWest (270°)25.3 mph33.4 mphMostly Cloudy
4:00 PM42.8 °F32.0 °F66 %29.89 in15.0 miWNW (290°)20.7 mph38.0 mphMostly Cloudy
5:00 PM42.8 °F30.2 °F61 %29.91 in15.0 miWNW (300°)26.5 mph39.1 mphMostly Cloudy
6:00 PM41.0 °F26.6 °F57 %29.94 in15.0 miNW (310°)21.9 mph41.4 mphMostly Cloudy
7:00 PM39.2 °F26.6 °F61 %29.96 in15.0 miWNW (300°)17.3 mph34.5 mphMostly Cloudy
7:23 PM39.2 °F28.4 °F65 %29.97 in15.0 miWNW (290°)16.1 mph29.9 mphLight Small Hail Showers
8:00 PM39.2 °F28.4 °F65 %29.99 in15.0 miWest (280°)16.1 mph27.6 mphSnowLight Snow Grains
8:00 PM38.0 °F28.0 °F57 %29.99 in15.0 miWest (280°)17.3 mph
8:19 PM37.4 °F28.4 °F70 %29.99 in15.0 miWNW (290°)18.4 mph29.9 mphSnowLight Snow Showers
9:00 PM37.4 °F28.4 °F70 %30.01 in15.0 miWNW (290°)17.3 mph29.9 mphSnowLight Snow Showers
10:00 PM37.4 °F28.4 °F70 %30.03 in15.0 miWest (280°)13.8 mph21.9 mphSnowLight Snow Showers
11:00 PM37.4 °F26.6 °F65 %30.04 in15.0 miWNW (290°)12.7 mph25.3 mphSnowLight Snow Showers
Hourly data recorded from CYXU, located miles away from London, Ontario







STORIES FROM OUR PARTNERS